DLH576L LFMQ-LFBO

Flight info

Callsign DLH576L
Flight time 0h 49m
Altitude 22000
Route MTG DCT SALIN DCT FJR DCT AFRIC
Aircraft AT46/M-SDFGIRY/S

Departure

Time 2026-05-04 09:51
Airport Le Castellet Airport (LFMQ)

Arrival

Time 2026-05-04 10:40
Airport Toulouse-Blagnac Airport (LFBO)
Time Latitude Longitude Altitude Speed Heading
2026-05-04 09:40 43.25059 5.78700 1397 ft 0 kts 308°
2026-05-04 09:46 43.25064 5.78669 1397 ft 6 kts 243°
2026-05-04 09:46 43.25048 5.78647 1392 ft 4 kts 266°
2026-05-04 09:47 43.25088 5.78614 1394 ft 7 kts 23°
2026-05-04 09:47 43.25121 5.78645 1395 ft 4 kts 39°
2026-05-04 09:49 43.24772 5.79337 1409 ft 5 kts 107°
2026-05-04 09:49 43.24778 5.79358 1407 ft 3 kts 49°
2026-05-04 09:49 43.24822 5.79316 1398 ft 13 kts 306°
2026-05-04 09:51 43.26815 5.73683 2994 ft 185 kts 270°
2026-05-04 09:51 43.26875 5.71786 3269 ft 208 kts 267°
2026-05-04 09:51 43.26927 5.69801 3954 ft 207 kts 269°
2026-05-04 09:51 43.27114 5.67861 4752 ft 202 kts 272°
2026-05-04 09:52 43.27369 5.65994 5514 ft 196 kts 275°
2026-05-04 09:52 43.27642 5.64185 6227 ft 194 kts 275°
2026-05-04 09:52 43.27914 5.62365 6819 ft 194 kts 275°
2026-05-04 09:52 43.28192 5.61175 7164 ft 200 kts 287°
2026-05-04 09:53 43.28803 5.59451 7751 ft 201 kts 289°
2026-05-04 09:53 43.29440 5.57706 8287 ft 202 kts 291°
2026-05-04 09:53 43.30063 5.55972 8828 ft 203 kts 288°
2026-05-04 09:53 43.30662 5.54244 9375 ft 204 kts 288°
2026-05-04 09:54 43.31257 5.52444 9969 ft 204 kts 288°
2026-05-04 09:54 43.31834 5.50663 10497 ft 205 kts 286°
2026-05-04 09:54 43.32409 5.48867 10997 ft 206 kts 287°
2026-05-04 09:54 43.32984 5.47087 11555 ft 202 kts 287°
2026-05-04 09:55 43.33549 5.45343 12021 ft 204 kts 287°
2026-05-04 09:55 43.34145 5.43515 12509 ft 206 kts 287°
2026-05-04 09:55 43.34743 5.41695 13039 ft 207 kts 287°
2026-05-04 09:55 43.35339 5.39879 13561 ft 209 kts 287°
2026-05-04 09:56 43.35932 5.38053 13990 ft 210 kts 287°
2026-05-04 09:56 43.36536 5.36186 14396 ft 211 kts 288°
2026-05-04 09:56 43.37146 5.34338 14786 ft 212 kts 288°
2026-05-04 09:56 43.37726 5.32479 15165 ft 210 kts 279°
2026-05-04 09:57 43.37924 5.30532 15491 ft 205 kts 266°
2026-05-04 09:57 43.37973 5.28569 15830 ft 208 kts 265°
2026-05-04 09:57 43.38004 5.26553 16336 ft 211 kts 266°
2026-05-04 09:57 43.38047 5.24543 16961 ft 209 kts 266°
2026-05-04 09:58 43.38100 5.22562 17601 ft 206 kts 266°
2026-05-04 09:58 43.38167 5.20599 18245 ft 205 kts 267°
2026-05-04 09:58 43.38240 5.18626 18825 ft 203 kts 267°
2026-05-04 10:00 43.37821 5.05491 21982 ft 205 kts 244°
2026-05-04 10:00 43.37223 5.03644 22009 ft 218 kts 243°
2026-05-04 10:02 43.32775 4.88454 22016 ft 257 kts 246°
2026-05-04 10:04 43.28653 4.72204 22023 ft 270 kts 278°
2026-05-04 10:04 43.29392 4.69746 22010 ft 280 kts 292°
2026-05-04 10:04 43.30356 4.67452 22001 ft 281 kts 295°
2026-05-04 10:04 43.31377 4.65121 22007 ft 281 kts 295°
2026-05-04 10:05 43.32353 4.62806 22009 ft 280 kts 293°
2026-05-04 10:05 43.33283 4.60467 22013 ft 279 kts 292°
2026-05-04 10:05 43.34198 4.58124 22005 ft 279 kts 292°
2026-05-04 10:05 43.35120 4.55780 22010 ft 279 kts 292°
2026-05-04 10:06 43.36043 4.53442 22013 ft 279 kts 292°
2026-05-04 10:06 43.36966 4.51094 22010 ft 279 kts 292°
2026-05-04 10:06 43.37888 4.48746 22015 ft 279 kts 292°
2026-05-04 10:08 43.43452 4.34565 22018 ft 280 kts 292°
2026-05-04 10:08 43.44375 4.32193 22016 ft 282 kts 292°
2026-05-04 10:08 43.45320 4.29776 22007 ft 284 kts 292°
2026-05-04 10:08 43.46256 4.27384 22002 ft 283 kts 292°
2026-05-04 10:09 43.47187 4.24997 22010 ft 283 kts 292°
2026-05-04 10:09 43.48119 4.22606 22014 ft 283 kts 292°
2026-05-04 10:09 43.49047 4.20218 22005 ft 283 kts 292°
2026-05-04 10:09 43.49975 4.17836 22008 ft 282 kts 292°
2026-05-04 10:10 43.50898 4.15459 22016 ft 281 kts 292°
2026-05-04 10:10 43.51824 4.13081 22018 ft 281 kts 292°
2026-05-04 10:10 43.52746 4.10699 22018 ft 281 kts 292°
2026-05-04 10:10 43.53678 4.08299 22028 ft 282 kts 292°
2026-05-04 10:11 43.54602 4.05912 22022 ft 282 kts 292°
2026-05-04 10:11 43.55524 4.03527 22023 ft 282 kts 292°
2026-05-04 10:11 43.56450 4.01138 22023 ft 282 kts 292°
2026-05-04 10:11 43.57369 3.98745 22031 ft 282 kts 290°
2026-05-04 10:12 43.57832 3.96165 22023 ft 271 kts 270°
2026-05-04 10:12 43.57865 3.93575 22031 ft 269 kts 264°
2026-05-04 10:12 43.57755 3.91003 22021 ft 269 kts 262°
2026-05-04 10:12 43.57630 3.88426 22014 ft 269 kts 262°
2026-05-04 10:13 43.57535 3.85844 22016 ft 270 kts 263°
2026-05-04 10:13 43.57491 3.84135 22024 ft 270 kts 264°
2026-05-04 10:13 43.57409 3.80674 22023 ft 271 kts 264°
2026-05-04 10:13 43.57365 3.78920 22027 ft 271 kts 264°
2026-05-04 10:14 43.57300 3.76314 22032 ft 273 kts 264°
2026-05-04 10:14 43.57230 3.73664 22028 ft 272 kts 262°
2026-05-04 10:16 43.56799 3.55817 22000 ft 261 kts 262°
2026-05-04 10:16 43.56732 3.53264 22001 ft 260 kts 262°
2026-05-04 10:16 43.56667 3.50769 22001 ft 260 kts 262°
2026-05-04 10:16 43.56601 3.48283 21999 ft 259 kts 262°
2026-05-04 10:17 43.56537 3.45802 21999 ft 259 kts 262°
2026-05-04 10:17 43.56471 3.43326 21997 ft 258 kts 262°
2026-05-04 10:19 43.55982 3.26001 22007 ft 258 kts 262°
2026-05-04 10:19 43.55911 3.23535 22008 ft 258 kts 262°
2026-05-04 10:19 43.55838 3.21063 22001 ft 257 kts 262°
2026-05-04 10:19 43.55765 3.18597 21999 ft 257 kts 262°
2026-05-04 10:20 43.55692 3.16133 22000 ft 257 kts 262°
2026-05-04 10:20 43.55617 3.13641 21997 ft 257 kts 262°
2026-05-04 10:20 43.55543 3.11236 21999 ft 256 kts 262°
2026-05-04 10:20 43.55468 3.08777 22005 ft 256 kts 262°
2026-05-04 10:21 43.55393 3.06327 21998 ft 256 kts 262°
2026-05-04 10:21 43.55314 3.03840 21990 ft 256 kts 262°
2026-05-04 10:21 43.55239 3.01401 22000 ft 254 kts 262°
2026-05-04 10:21 43.55157 2.98973 21999 ft 254 kts 262°
2026-05-04 10:22 43.55006 2.94110 21993 ft 253 kts 261°
2026-05-04 10:22 43.54930 2.91693 21991 ft 253 kts 261°
2026-05-04 10:22 43.54840 2.89155 21377 ft 272 kts 262°
2026-05-04 10:23 43.54755 2.86490 20959 ft 282 kts 262°
2026-05-04 10:23 43.54667 2.83765 20585 ft 287 kts 262°
2026-05-04 10:25 43.53986 2.63781 17932 ft 304 kts 263°
2026-05-04 10:25 43.53887 2.60895 17513 ft 298 kts 263°
2026-05-04 10:25 43.53792 2.58141 17121 ft 293 kts 263°
2026-05-04 10:25 43.53667 2.55255 16711 ft 288 kts 261°
2026-05-04 10:26 43.53493 2.52522 16323 ft 285 kts 260°
2026-05-04 10:26 43.53307 2.49809 15966 ft 284 kts 259°
2026-05-04 10:26 43.53102 2.47107 15602 ft 283 kts 259°
2026-05-04 10:26 43.52900 2.44411 15241 ft 283 kts 259°
2026-05-04 10:27 43.52718 2.41703 14889 ft 284 kts 260°
2026-05-04 10:27 43.52536 2.38993 14530 ft 285 kts 260°
2026-05-04 10:27 43.52354 2.36272 14173 ft 286 kts 260°
2026-05-04 10:27 43.52169 2.33546 13826 ft 286 kts 260°
2026-05-04 10:28 43.51979 2.30776 13419 ft 286 kts 260°
2026-05-04 10:28 43.51798 2.28080 13028 ft 287 kts 260°
2026-05-04 10:28 43.51610 2.25308 12636 ft 286 kts 260°
2026-05-04 10:28 43.51423 2.22581 12260 ft 286 kts 261°
2026-05-04 10:29 43.51234 2.19852 11890 ft 286 kts 261°
2026-05-04 10:29 43.51047 2.17119 11514 ft 285 kts 261°
2026-05-04 10:29 43.50856 2.14368 11144 ft 285 kts 261°
2026-05-04 10:29 43.50669 2.11664 10791 ft 284 kts 261°
2026-05-04 10:30 43.50544 2.09869 10560 ft 284 kts 261°
2026-05-04 10:30 43.50353 2.07125 10232 ft 283 kts 261°
2026-05-04 10:30 43.50156 2.04355 9919 ft 283 kts 260°
2026-05-04 10:30 43.49965 2.01611 9580 ft 280 kts 261°
2026-05-04 10:31 43.49780 1.98957 9224 ft 274 kts 260°
2026-05-04 10:31 43.49594 1.96328 8836 ft 271 kts 261°
2026-05-04 10:32 43.48847 1.81065 6582 ft 265 kts 264°
2026-05-04 10:33 43.48763 1.78543 6259 ft 262 kts 264°
2026-05-04 10:33 43.48681 1.76041 5946 ft 261 kts 265°
2026-05-04 10:33 43.48595 1.73552 5606 ft 261 kts 265°
2026-05-04 10:33 43.48503 1.71006 5303 ft 261 kts 265°
2026-05-04 10:34 43.48418 1.68505 5009 ft 258 kts 265°
2026-05-04 10:34 43.48351 1.66220 4702 ft 254 kts 265°
2026-05-04 10:34 43.48332 1.65576 4617 ft 253 kts 266°
2026-05-04 10:34 43.48263 1.63219 4311 ft 251 kts 265°
2026-05-04 10:35 43.48184 1.60824 4035 ft 250 kts 263°
2026-05-04 10:35 43.47897 1.58488 3766 ft 244 kts 253°
2026-05-04 10:35 43.47493 1.56246 3475 ft 237 kts 252°
2026-05-04 10:35 43.47208 1.53998 3210 ft 233 kts 263°
2026-05-04 10:36 43.47524 1.51873 3070 ft 226 kts 298°
2026-05-04 10:36 43.48618 1.50404 3040 ft 218 kts 329°
2026-05-04 10:36 43.49874 1.49284 3006 ft 207 kts 327°
2026-05-04 10:36 43.51024 1.48208 2987 ft 187 kts 326°
2026-05-04 10:37 43.52068 1.47239 2880 ft 180 kts 327°
2026-05-04 10:37 43.53109 1.46280 2653 ft 180 kts 328°
2026-05-04 10:37 43.54138 1.45298 2406 ft 180 kts 326°
2026-05-04 10:37 43.55123 1.44269 2161 ft 170 kts 323°
2026-05-04 10:39 43.60027 1.39128 995 ft 113 kts 321°
2026-05-04 10:39 43.60639 1.38505 840 ft 104 kts 321°
2026-05-04 10:39 43.61223 1.37907 691 ft 98 kts 320°
2026-05-04 10:40 43.61754 1.37354 585 ft 96 kts 321°
2026-05-04 10:40 43.62278 1.36807 491 ft 86 kts 318°
2026-05-04 10:40 43.62572 1.36500 485 ft 24 kts 322°
2026-05-04 10:40 43.62680 1.36390 487 ft 14 kts 323°
2026-05-04 10:41 43.62755 1.36313 490 ft 20 kts 323°
2026-05-04 10:41 43.62866 1.36198 487 ft 37 kts 323°
2026-05-04 10:41 43.63055 1.36002 487 ft 25 kts 320°
2026-05-04 10:41 43.63069 1.35899 489 ft 10 kts 238°
2026-05-04 10:42 43.63032 1.35823 490 ft 8 kts 237°
2026-05-04 10:42 43.63029 1.35817 490 ft 0 kts 237°
2026-05-04 10:42 43.63019 1.35780 490 ft 11 kts 263°
2026-05-04 10:42 43.63051 1.35700 486 ft 9 kts 316°
2026-05-04 10:43 43.63104 1.35641 488 ft 14 kts 323°
2026-05-04 10:44 43.63473 1.34695 489 ft 16 kts 188°
2026-05-04 10:45 43.63366 1.34699 488 ft 14 kts 151°
2026-05-04 10:45 43.63353 1.34821 487 ft 13 kts 58°
2026-05-04 10:45 43.63389 1.34887 490 ft 0 kts 51°